History for DABS

Tebessa, Algeria

Daily Weekly Monthly
Daily Summary for Sunday, May 29, 2016
  Actual: Average: Record:
Temperature
Mean Temperature: 74 °F / 24 °C - :  
Max Temperature: 86 °F / 30 °C 87 °F / 31 °C - ()
Min Temperature: 62 °F / 17 °C 58 °F / 14 °C - ()
Cooling Degree Days 9    
Growing Degree Days 24 (Base 50)    
Moisture
Dew Point 58 °F / 14 °C    
Average Humidity 53    
Maximum Humidity 88    
Minimum Humidity 23    
Precipitation
Precipitation 0.00 in / 0.0 cm 0.04 in / 1.0 cm - ()
Sea Level Pressure
Sea Level Pressure 30.05 in / 1017.58 hPa   
Wind
Wind Speed 12 mph / 20 km/h ()  
Max Wind Speed 24 mph / 39 km/h   
Max Gust Speed -   
Visibility 4.9 miles / 7.8 kilometers   
Events     

Key: T is trace of precipitation, MM is missing value
Source: Averaged Metar Reports

Graphs

Observations

History Graphs Observations

Obs Go Here...

Features

Weather Apps

WunderRadio

Weather Underground Apps
Check out our wide variety of mobile and setup applications.

Weather Underground Applications

Top of Page

© Copyright 2016
The Weather Company, LLC
Time(CET)TemperatureDew PointHumidity Sea Level Pressure Visibility Wind DirectionWind SpeedGust SpeedPrecipitationEvents Conditions
12:00 AM 82.4 °F / 28.0 °C 48.2 °F / 9.0 °C 30% 30.06 in / 1018 hPa 5.0 miles / 8.0 kilometers SSW 19.6 mph / 31.5 km/h - N/A   Scattered Clouds
12:30 AM 80.6 °F / 27.0 °C 48.2 °F / 9.0 °C 32% 30.06 in / 1018 hPa 5.0 miles / 8.0 kilometers SSW 24.2 mph / 38.9 km/h - N/A   Scattered Clouds
1:00 AM 80 °F / 26 °C 49 °F / 9 °C 23%  in /  hPa 5 miles / 8 kilometers SSW 19.6 mph / 31.5 km/h - -   Partly Cloudy
1:00 AM 80.6 °F / 27.0 °C 48.2 °F / 9.0 °C 32% 30.04 in / 1017 hPa 5.0 miles / 8.0 kilometers SSW 19.6 mph / 31.5 km/h - N/A   Scattered Clouds
1:30 AM 84.2 °F / 29.0 °C 48.2 °F / 9.0 °C 29% 30.04 in / 1017 hPa 5.0 miles / 8.0 kilometers SSW 21.9 mph / 35.2 km/h - N/A   Scattered Clouds
2:00 AM 78.8 °F / 26.0 °C 48.2 °F / 9.0 °C 34% 30.04 in / 1017 hPa 5.0 miles / 8.0 kilometers SSW 24.2 mph / 38.9 km/h - N/A   Scattered Clouds
2:30 AM 78.8 °F / 26.0 °C 48.2 °F / 9.0 °C 34% 30.04 in / 1017 hPa 5.0 miles / 8.0 kilometers South 16.1 mph / 25.9 km/h - N/A   Scattered Clouds
3:00 AM 78.8 °F / 26.0 °C 48.2 °F / 9.0 °C 34% 30.04 in / 1017 hPa 5.0 miles / 8.0 kilometers South 21.9 mph / 35.2 km/h - N/A   Scattered Clouds
3:30 AM 77.0 °F / 25.0 °C 48.2 °F / 9.0 °C 36% 30.04 in / 1017 hPa 5.0 miles / 8.0 kilometers South 18.4 mph / 29.6 km/h - N/A   Scattered Clouds
4:00 AM 76 °F / 24 °C 51 °F / 11 °C 31%  in /  hPa 5 miles / 8 kilometers NW 13.8 mph / 22.2 km/h - -   Partly Cloudy
4:00 AM 75.2 °F / 24.0 °C 51.8 °F / 11.0 °C 44% 30.04 in / 1017 hPa 5.0 miles / 8.0 kilometers NW 13.8 mph / 22.2 km/h - N/A   Scattered Clouds
4:30 AM 75.2 °F / 24.0 °C 51.8 °F / 11.0 °C 44% 30.04 in / 1017 hPa 5.0 miles / 8.0 kilometers NW 11.5 mph / 18.5 km/h - N/A   Scattered Clouds
5:00 AM 69.8 °F / 21.0 °C 57.2 °F / 14.0 °C 64% 30.06 in / 1018 hPa 5.0 miles / 8.0 kilometers West 11.5 mph / 18.5 km/h - N/A   Scattered Clouds
5:30 AM 69.8 °F / 21.0 °C 57.2 °F / 14.0 °C 64% 30.06 in / 1018 hPa 5.0 miles / 8.0 kilometers NW 11.5 mph / 18.5 km/h - N/A   Scattered Clouds
6:00 AM 68.0 °F / 20.0 °C 57.2 °F / 14.0 °C 68% 30.06 in / 1018 hPa 5.0 miles / 8.0 kilometers WNW 11.5 mph / 18.5 km/h - N/A   Scattered Clouds
6:30 AM 68.0 °F / 20.0 °C 57.2 °F / 14.0 °C 68% 30.06 in / 1018 hPa 5.0 miles / 8.0 kilometers WNW 11.5 mph / 18.5 km/h - N/A   Scattered Clouds
7:00 AM 68 °F / 20 °C 59 °F / 15 °C 64%  in /  hPa 5 miles / 8 kilometers NW 13.8 mph / 22.2 km/h - -   Partly Cloudy
7:00 AM 68.0 °F / 20.0 °C 59.0 °F / 15.0 °C 73% 30.06 in / 1018 hPa 5.0 miles / 8.0 kilometers NW 13.8 mph / 22.2 km/h - N/A   Scattered Clouds
7:30 AM 69.8 °F / 21.0 °C 59.0 °F / 15.0 °C 68% 30.09 in / 1019 hPa 5.0 miles / 8.0 kilometers NNW 13.8 mph / 22.2 km/h - N/A   Scattered Clouds
8:00 AM 69.8 °F / 21.0 °C 59.0 °F / 15.0 °C 68% 30.09 in / 1019 hPa 5.0 miles / 8.0 kilometers NNW 13.8 mph / 22.2 km/h - N/A   Scattered Clouds
8:30 AM 71.6 °F / 22.0 °C 59.0 °F / 15.0 °C 64% 30.09 in / 1019 hPa 5.0 miles / 8.0 kilometers NNW 11.5 mph / 18.5 km/h - N/A   Scattered Clouds
9:00 AM 73.4 °F / 23.0 °C 62.6 °F / 17.0 °C 69% 30.09 in / 1019 hPa 5.0 miles / 8.0 kilometers Calm Calm - N/A   Scattered Clouds
9:30 AM 73.4 °F / 23.0 °C 62.6 °F / 17.0 °C 69% 30.09 in / 1019 hPa 5.0 miles / 8.0 kilometers North 4.6 mph / 7.4 km/h - N/A   Scattered Clouds
10:00 AM 75 °F / 24 °C 62 °F / 16 °C 54%  in /  hPa 5 miles / 8 kilometers Calm Calm - -   Partly Cloudy
10:00 AM 75.2 °F / 24.0 °C 62.6 °F / 17.0 °C 65% 30.09 in / 1019 hPa 5.0 miles / 8.0 kilometers Calm Calm - N/A   Scattered Clouds
10:30 AM 75.2 °F / 24.0 °C 62.6 °F / 17.0 °C 65% 30.09 in / 1019 hPa 5.0 miles / 8.0 kilometers NNW 11.5 mph / 18.5 km/h - N/A   Partly Cloudy
11:00 AM 78.8 °F / 26.0 °C 60.8 °F / 16.0 °C 54% 30.06 in / 1018 hPa 5.0 miles / 8.0 kilometers NW 4.6 mph / 7.4 km/h - N/A   Partly Cloudy
11:30 AM 78.8 °F / 26.0 °C 60.8 °F / 16.0 °C 54% 30.06 in / 1018 hPa 5.0 miles / 8.0 kilometers Calm Calm - N/A   Partly Cloudy
12:00 PM 80.6 °F / 27.0 °C 60.8 °F / 16.0 °C 51% 30.06 in / 1018 hPa 5.0 miles / 8.0 kilometers Calm Calm - N/A   Partly Cloudy
12:30 PM 80.6 °F / 27.0 °C 60.8 °F / 16.0 °C 51% 30.04 in / 1017 hPa 5.0 miles / 8.0 kilometers WNW 4.6 mph / 7.4 km/h - N/A   Partly Cloudy
1:00 PM 84 °F / 29 °C 62 °F / 17 °C 38%  in /  hPa 4 miles / 6 kilometers WNW 11.5 mph / 18.5 km/h - -   Scattered Clouds
1:00 PM 84.2 °F / 29.0 °C 62.6 °F / 17.0 °C 48% 30.04 in / 1017 hPa 3.7 miles / 6.0 kilometers WNW 11.5 mph / 18.5 km/h - N/A   Unknown
1:30 PM 84.2 °F / 29.0 °C 62.6 °F / 17.0 °C 48% 30.04 in / 1017 hPa 3.7 miles / 6.0 kilometers NNE 4.6 mph / 7.4 km/h - N/A   Unknown
2:00 PM 86.0 °F / 30.0 °C 60.8 °F / 16.0 °C 43% 30.04 in / 1017 hPa 3.7 miles / 6.0 kilometers Calm Calm - N/A   Partly Cloudy
2:30 PM 86.0 °F / 30.0 °C 60.8 °F / 16.0 °C 43% 30.04 in / 1017 hPa 3.7 miles / 6.0 kilometers Calm Calm - N/A   Scattered Clouds
3:00 PM 86.0 °F / 30.0 °C 62.6 °F / 17.0 °C 45% 30.01 in / 1016 hPa 3.7 miles / 6.0 kilometers Calm Calm - N/A   Scattered Clouds
3:30 PM 86.0 °F / 30.0 °C 62.6 °F / 17.0 °C 45% 30.01 in / 1016 hPa 5.0 miles / 8.0 kilometers Calm Calm - N/A   Scattered Clouds
4:00 PM 85 °F / 30 °C 61 °F / 16 °C 34%  in /  hPa 5 miles / 8 kilometers ENE 16.1 mph / 25.9 km/h - -   Mostly Cloudy
4:00 PM 86.0 °F / 30.0 °C 60.8 °F / 16.0 °C 43% 30.01 in / 1016 hPa 6.2 miles / 10.0 kilometers ENE 16.1 mph / 25.9 km/h - N/A   Mostly Cloudy
4:30 PM 86.0 °F / 30.0 °C 60.8 °F / 16.0 °C 43% 30.01 in / 1016 hPa 5.0 miles / 8.0 kilometers East 13.8 mph / 22.2 km/h - N/A   Mostly Cloudy
5:00 PM 84.2 °F / 29.0 °C 60.8 °F / 16.0 °C 45% 30.01 in / 1016 hPa 5.0 miles / 8.0 kilometers East 16.1 mph / 25.9 km/h - N/A   Mostly Cloudy
5:30 PM 82.4 °F / 28.0 °C 60.8 °F / 16.0 °C 48% 30.01 in / 1016 hPa 5.0 miles / 8.0 kilometers East 16.1 mph / 25.9 km/h - N/A   Mostly Cloudy
6:00 PM 82.4 °F / 28.0 °C 60.8 °F / 16.0 °C 48% 30.01 in / 1016 hPa 5.0 miles / 8.0 kilometers East 13.8 mph / 22.2 km/h - N/A   Mostly Cloudy
6:30 PM 80.6 °F / 27.0 °C 59.0 °F / 15.0 °C 48% 30.01 in / 1016 hPa 5.0 miles / 8.0 kilometers East 19.6 mph / 31.5 km/h - N/A   Scattered Clouds
7:00 PM 76 °F / 24 °C 57 °F / 14 °C 42%  in /  hPa 5 miles / 8 kilometers East 16.1 mph / 25.9 km/h - -   Partly Cloudy
7:00 PM 75.2 °F / 24.0 °C 57.2 °F / 14.0 °C 53% 30.01 in / 1016 hPa 5.0 miles / 8.0 kilometers East 16.1 mph / 25.9 km/h - N/A   Scattered Clouds
7:30 PM 75.2 °F / 24.0 °C 60.8 °F / 16.0 °C 61% 30.01 in / 1016 hPa 5.0 miles / 8.0 kilometers East 4.6 mph / 7.4 km/h - N/A   Scattered Clouds
8:00 PM 73.4 °F / 23.0 °C 57.2 °F / 14.0 °C 57% 30.04 in / 1017 hPa 5.0 miles / 8.0 kilometers East 4.6 mph / 7.4 km/h - N/A   Scattered Clouds
8:30 PM 69.8 °F / 21.0 °C 60.8 °F / 16.0 °C 73% 30.04 in / 1017 hPa 5.0 miles / 8.0 kilometers East 11.5 mph / 18.5 km/h - N/A   Scattered Clouds
9:00 PM 68.0 °F / 20.0 °C 60.8 °F / 16.0 °C 78% 30.06 in / 1018 hPa 5.0 miles / 8.0 kilometers East 11.5 mph / 18.5 km/h - N/A   Partly Cloudy
9:30 PM 68.0 °F / 20.0 °C 60.8 °F / 16.0 °C 78% 30.09 in / 1019 hPa 5.0 miles / 8.0 kilometers East 11.5 mph / 18.5 km/h - N/A   Partly Cloudy
10:00 PM 65 °F / 18 °C 53 °F / 12 °C 55%  in /  hPa 5 miles / 8 kilometers East 6.9 mph / 11.1 km/h - -   Scattered Clouds
10:00 PM 66.2 °F / 19.0 °C 53.6 °F / 12.0 °C 64% 30.12 in / 1020 hPa 5.0 miles / 8.0 kilometers East 6.9 mph / 11.1 km/h - N/A   Partly Cloudy
10:30 PM 64.4 °F / 18.0 °C 59.0 °F / 15.0 °C 83% 30.09 in / 1019 hPa 5.0 miles / 8.0 kilometers East 4.6 mph / 7.4 km/h - N/A   Partly Cloudy
11:00 PM 62.6 °F / 17.0 °C 59.0 °F / 15.0 °C 88% 30.12 in / 1020 hPa 5.0 miles / 8.0 kilometers Calm Calm - N/A   Unknown
11:30 PM 64.4 °F / 18.0 °C 57.2 °F / 14.0 °C 77% 30.12 in / 1020 hPa 5.0 miles / 8.0 kilometers Calm Calm - N/A   Unknown